Powrót do katalogu

GRACE-FO 2

AktywnyNaukaPO
NORAD 43477·PAYLOAD·🇺🇸 United States

Wystrzelony May 22, 2018 z Vandenberg Space Force Base

Loading…

Następne Przeloty (najbliższe 24 godziny)

TLE

ŚwieżeSource: CelesTrak SupGP

Epoka: Sep 14, 2026, 00:01 UTC

1 43477C 18047B   26257.00118056  .00092270  00000+0  23403-2 0  2578
2 43477  88.9998 185.7614 0010600 113.2140 214.8221 15.39430295    11

Śledź GRACE-FO 2 w czasie rzeczywistym z AllMySat

Download on the App Store